"TOA5","AWS1","CR1000","7964","CR1000.Std.14","CPU:AWS1_114.CR1","64363","TBL110"
"TIMESTAMP","RECORD","Wind_spd_WVc(1)","Wind_spd_WVc(2)","Air_Temp_Avg","Humidity_Avg","SW_upper_Wm2_Avg","Rain_Tot","Press_Avg","Issui_Tot","Depth_cm","SR50A_Raw","Quality","Ground_Temp_Avg(1)","Ground_Temp_Avg(2)","SW_lower_Wm2_Avg","Albedo_Avg","SWC_per(1)","SWC_per(2)","Period(1)","Period(2)"
"TS","RN","","","","","","","","","","","","","","","","","","",""
"","","WVc","WVc","Avg","Avg","Avg","Tot","Avg","Tot","Smp","Smp","Smp","Avg","Avg","Avg","Avg","Smp","Smp","Smp","Smp"
"2018-07-27 00:00:00",351133,0.044,171.5,19.17,100,0,0,863.9166,0,9.51,2.982,229,22.4,21.72,0.07202387,0,34.95,44.67,29.28,31.94
"2018-07-27 00:10:00",351134,0.009,144.7,19.17,100,0,0,863.9144,0,9.22,2.985,252,22.31,21.72,0.1023503,0,34.95,44.67,29.28,31.94
"2018-07-27 00:20:00",351135,0.025,118.2,19.14,100,0,0,863.8829,0,-24.45,3.311,335,22.32,21.72,0.1440509,0,34.95,44.67,29.28,31.94
"2018-07-27 00:30:00",351136,0.341,115.2,19.01,100,0,0,863.925,0,-25.04,3.317,255,22.33,21.72,0.2274497,0,34.95,44.67,29.28,31.94
"2018-07-27 00:40:00",351137,0.27,134,19.02,100,0,0,864.1145,0,-24.32,3.31,199,22.33,21.72,0.2274501,0,34.95,44.67,29.28,31.94
"2018-07-27 00:50:00",351138,0.106,138.6,18.88,100,0,0,864.1208,0,-24.58,3.313,198,22.33,21.72,0.2274501,0,34.95,44.67,29.28,31.94
"2018-07-27 01:00:00",351139,0.038,140,18.98,100,0,0,864.1208,0,-26.54,3.332,233,22.25,21.72,0.2274474,0,34.99,44.67,29.3,31.94
"2018-07-27 01:10:00",351140,0.3,30,18.93,100,0,0,864.1208,0,-20.65,3.275,186,22.23,21.73,0.2274482,0,34.95,44.67,29.28,31.94
"2018-07-27 01:20:00",351141,0.148,56.28,19.01,100,0,0,864.1208,0,18.54,2.896,297,22.24,21.74,0.2274472,0,34.99,44.67,29.3,31.94
"2018-07-27 01:30:00",351142,0.072,142.3,18.96,100,0,0,864.1292,0,18.15,2.9,325,22.24,21.76,0.09097878,0,34.99,44.67,29.3,31.94
"2018-07-27 01:40:00",351143,0.198,138.5,18.81,100,0,0,864.1314,0,18.45,2.898,317,22.23,21.77,0,0,34.99,44.67,29.3,31.94
"2018-07-27 01:50:00",351144,0.28,151.3,18.65,100,0,0,864.1271,0,18.26,2.9,304,22.2,21.79,0,0,34.99,44.67,29.3,31.94
"2018-07-27 02:00:00",351145,0.07,132.8,18.58,100,0,0,864.1503,0,-23.49,3.304,192,22.15,21.8,0.1592139,0,34.99,44.67,29.3,31.94
"2018-07-27 02:10:00",351146,0.336,132.8,18.51,100,0,0,864.1461,0,18.31,2.901,300,22.13,21.8,0.06444396,0,34.99,44.67,29.3,31.94
"2018-07-27 02:20:00",351147,0.345,142,18.37,100,0,0,864.125,0,-23.32,3.304,204,22.15,21.75,0.07202587,0,34.99,44.67,29.3,31.94
"2018-07-27 02:30:00",351148,0.273,141.7,18.33,100,0,0,864.1103,0,17.2,2.912,296,22.16,21.72,0.08718922,0,34.99,44.67,29.3,31.94
"2018-07-27 02:40:00",351149,0.101,201.7,18.17,100,0,0,863.8871,0,17.39,2.911,304,22.06,21.72,0.03411753,0,34.99,44.67,29.3,31.94
"2018-07-27 02:50:00",351150,0.022,210.7,18.1,100,0,0,863.8682,0,17.25,2.913,311,22.06,21.71,0.2274502,0,34.99,44.67,29.3,31.94
"2018-07-27 03:00:00",351151,0.057,322.8,17.93,100,0,0,863.8134,0,16.86,2.917,324,22.07,21.68,0.2274502,0,34.99,44.67,29.3,31.94
"2018-07-27 03:10:00",351152,0.047,287.3,17.95,100,0.01965814,0,863.7206,0,-23.65,3.309,213,22.07,21.65,0.3373844,0.161,34.99,44.67,29.3,31.94
"2018-07-27 03:20:00",351153,0.02,131.6,18.04,100,0.05111115,0,863.6807,0,16.77,2.917,326,22.09,21.64,0.5610438,0.546,35.04,44.67,29.31,31.94
"2018-07-27 03:30:00",351154,0,0,18.04,100,0,0,863.708,0,16.97,2.916,342,22.04,21.64,0.3411753,0,35.04,44.67,29.31,31.94
"2018-07-27 03:40:00",351155,0,0,17.88,100,0,0,863.6785,0,16.99,2.916,331,22.01,21.65,0.2274502,0,35.04,44.67,29.31,31.94
"2018-07-27 03:50:00",351156,0.005,350.5,17.93,100,0,0,863.7438,0,17.25,2.913,319,21.99,21.68,0.2956852,0,35.04,44.67,29.31,31.94
"2018-07-27 04:00:00",351157,0.097,160.9,17.96,100,0,0,863.8618,0,-25.41,3.327,208,21.99,21.7,0.2388227,0,35.04,44.72,29.31,31.96
"2018-07-27 04:10:00",351158,0.124,222.7,17.8,100,0,0,863.8682,0,16.5,2.921,301,22,21.72,0.1213068,0,35.04,44.72,29.31,31.96
"2018-07-27 04:20:00",351159,0.005,288.7,17.89,100,0,0,863.8682,0,16.52,2.921,333,21.91,21.72,0.2274502,0,35.04,44.72,29.31,31.96
"2018-07-27 04:30:00",351160,0,0,17.93,100,0,0,863.8682,0,-24.48,3.318,211,21.9,21.72,0.625488,0,35.04,44.72,29.31,31.96
"2018-07-27 04:40:00",351161,0.207,83.9,17.87,100,0,0,863.8682,0,16.83,2.918,315,21.9,21.71,0.3601294,0,35.04,44.72,29.31,31.96
"2018-07-27 04:50:00",351162,0.114,97.9,17.71,100,0,0,863.8682,0,-25.28,3.327,210,21.92,21.68,0.2274502,0,35.04,44.72,29.31,31.96
"2018-07-27 05:00:00",351163,0.088,65.02,17.71,100,0.8099151,0,863.8682,0,-25.05,3.324,227,21.83,21.6,0.4700637,0.37,35.04,44.72,29.31,31.96
"2018-07-27 05:10:00",351164,0.215,50.34,17.76,100,3.451968,0,863.8682,0,-24.3,3.317,196,21.81,21.56,0.8946373,0.272,35.09,44.72,29.32,31.96
"2018-07-27 05:20:00",351165,0.091,343.8,17.73,100,8.692826,0,863.8682,0,-24.04,3.315,194,21.81,21.55,1.724831,0.201,35.04,44.72,29.31,31.96
"2018-07-27 05:30:00",351166,0.395,11.7,17.61,100,17.31095,0,863.8682,0,-23.66,3.311,198,21.82,21.55,2.827964,0.164,35.04,44.72,29.31,31.96
"2018-07-27 05:40:00",351167,0.134,306.2,17.61,100,21.65933,0,863.8682,0,17.85,2.909,396,21.81,21.56,3.032669,0.14,35.04,44.72,29.31,31.96
"2018-07-27 05:50:00",351168,0,0,17.7,100,31.10287,0,863.9061,0,17.77,2.91,327,21.73,21.58,4.480736,0.144,35.04,44.72,29.31,31.96
"2018-07-27 06:00:00",351169,0.019,31.08,17.51,100,70.16301,0,864.1145,0,16.91,2.919,513,21.72,21.59,12.74086,0.177,35.04,44.72,29.31,31.96
"2018-07-27 06:10:00",351170,0.008,86.8,17.72,100,50.07685,0,864.1314,0,17.76,2.909,413,21.72,21.59,7.729472,0.154,35.04,44.72,29.31,31.96
"2018-07-27 06:20:00",351171,0,0,18.04,100,75.32198,0,864.2598,0,-23.22,3.304,198,21.72,21.59,12.32399,0.163,35.09,44.72,29.32,31.96
"2018-07-27 06:30:00",351172,0.03,299.2,18.38,100,66.88874,0,864.1545,0,17.03,2.913,322,21.74,21.57,10.37551,0.155,35.09,44.72,29.32,31.96
"2018-07-27 06:40:00",351173,0.155,28.07,18.41,100,156.7343,0,864.1229,0,-22.9,3.299,276,21.74,21.58,26.82017,0.17,35.09,44.72,29.32,31.96
"2018-07-27 06:50:00",351174,0.063,170.6,18.7,100,178.4723,0,864.1208,0,10.11,2.978,283,21.67,21.55,29.93624,0.168,35.14,44.72,29.34,31.96
"2018-07-27 07:00:00",351175,0.261,33.68,18.94,96.8,183.2492,0,864.1208,0,7.661,3.003,273,21.67,21.55,29.89832,0.163,35.09,44.72,29.32,31.96
"2018-07-27 07:10:00",351176,0.489,20.34,18.57,99.7,229.9256,0,864.0703,0,8.43,2.994,342,21.66,21.55,41.25496,0.179,35.09,44.72,29.32,31.96
"2018-07-27 07:20:00",351177,0.432,8.5,19.19,93.3,284.2274,0,863.9987,0,-26.9,3.332,194,21.63,21.54,50.11694,0.185,35.14,44.72,29.34,31.96
"2018-07-27 07:30:00",351178,0.466,11.3,19.55,89.2,231.0847,0,863.9944,0,10.37,2.972,276,21.61,21.54,41.20487,0.179,35.09,44.72,29.32,31.96
"2018-07-27 07:40:00",351179,0.351,50.63,19.77,87.8,277.1908,0,863.8766,0,7.96,2.994,242,21.58,21.54,54.26867,0.198,35.14,44.72,29.34,31.96
"2018-07-27 07:50:00",351180,0.405,20.58,19.76,86.6,354.2371,0,863.9039,0,-24.11,3.303,181,21.58,21.51,62.21617,0.175,35.09,44.72,29.32,31.96
"2018-07-27 08:00:00",351181,0.301,29.15,19.58,88.5,322.9824,0,863.9629,0,-25.89,3.321,194,21.56,21.46,52.33612,0.162,35.09,44.72,29.32,31.96
"2018-07-27 08:10:00",351182,0.729,24.71,19.17,91.6,227.7986,0,864.0008,0,13.92,2.941,272,21.55,21.42,35.4452,0.155,35.09,44.72,29.32,31.96
"2018-07-27 08:20:00",351183,0.663,20.05,18.89,96.6,308.0476,0,863.8682,0,-26.77,3.335,191,21.57,21.37,50.04031,0.162,35.09,44.72,29.32,31.96
"2018-07-27 08:30:00",351184,0.41,44.52,19.41,91.8,507.39,0,863.8682,0,-30.72,3.364,198,21.58,21.37,83.06918,0.163,35.09,44.72,29.32,31.96
"2018-07-27 08:40:00",351185,0.728,14.02,20.25,82.1,651.3315,0,863.8682,0,-25.89,3.319,262,21.57,21.38,104.5284,0.158,35.04,44.77,29.31,31.97
"2018-07-27 08:50:00",351186,0.549,19.72,19.81,85.2,240.4265,0,863.866,0,-27.79,3.339,203,21.54,21.35,35.39273,0.146,35.04,44.72,29.31,31.96
"2018-07-27 09:00:00",351187,0.287,13.98,19.73,87.8,202.6294,0,863.8682,0,13.09,2.943,262,21.58,21.36,30.63319,0.151,35.09,44.72,29.32,31.96
"2018-07-27 09:10:00",351188,0.203,3.219,19.86,87.4,194.2219,0,863.8682,0,16.76,2.908,295,21.6,21.37,30.09065,0.155,35.09,44.72,29.32,31.96
"2018-07-27 09:20:00",351189,0.035,0.986,19.97,88.1,179.4245,0,863.8682,0,15.66,2.918,312,21.6,21.33,27.70264,0.154,35.09,44.72,29.32,31.96
"2018-07-27 09:30:00",351190,0.088,86.6,20.21,85.7,203.7076,0,863.8682,0,15.97,2.913,281,21.59,21.28,31.75712,0.156,35.09,44.72,29.32,31.96
"2018-07-27 09:40:00",351191,0.061,340.6,20.3,83.3,154.7471,0,863.8682,0,15.64,2.917,288,21.56,21.25,23.67509,0.152,35.09,44.72,29.32,31.96
"2018-07-27 09:50:00",351192,0.247,315.5,20.31,82.4,346.9671,0,863.8682,0,8.19,2.986,288,21.6,21.25,55.72357,0.159,35.09,44.72,29.32,31.96
"2018-07-27 10:00:00",351193,0.251,255.1,21.55,76.51,568.1007,0,863.8682,0,7.627,2.987,453,21.68,21.26,88.2533,0.152,35.04,44.72,29.31,31.96
"2018-07-27 10:10:00",351194,0.217,289.4,21.28,75.73,251.5547,0,863.7143,0,-26.44,3.319,217,21.67,21.24,36.28516,0.144,34.99,44.67,29.3,31.94
"2018-07-27 10:20:00",351195,0.161,186.7,21.38,75.34,415.7622,0,863.7501,0,14.68,2.919,376,21.65,21.19,64.51125,0.152,34.99,44.67,29.3,31.94
"2018-07-27 10:30:00",351196,0.193,282.7,21.42,75.52,256.4153,0,863.8028,0,15.3,2.916,243,21.63,21.19,38.05306,0.148,34.99,44.67,29.3,31.94
"2018-07-27 10:40:00",351197,0.115,238,21.17,76.43,308.4864,0,863.6406,0,-24.06,3.294,196,21.66,21.22,45.5783,0.144,34.99,44.67,29.3,31.94
"2018-07-27 10:50:00",351198,0.316,243,21.97,70.21,603.6839,0,863.5016,0,11.36,2.951,248,21.72,21.2,93.41523,0.14,34.99,44.67,29.3,31.94
"2018-07-27 11:00:00",351199,0.232,210.8,21.86,71.06,264.7625,0,863.3647,0,9.75,2.966,295,21.7,21.22,36.47582,0.135,34.99,44.67,29.3,31.94
"2018-07-27 11:10:00",351200,0.12,246.1,21.8,74.42,343.2493,0,863.4827,0,10.75,2.956,292,21.71,21.24,54.06629,0.152,34.99,44.67,29.3,31.94
"2018-07-27 11:20:00",351201,0.23,260.4,22.57,69.64,505.1126,0,863.3837,0,-33.06,3.376,230,21.79,21.21,76.31067,0.139,34.99,44.67,29.3,31.94
"2018-07-27 11:30:00",351202,0.193,203.8,22.16,69.21,290.2645,0,863.4911,0,-35.25,3.398,215,21.81,21.23,40.46111,0.139,34.95,44.67,29.28,31.94
"2018-07-27 11:40:00",351203,0.097,65.87,22.05,68.49,224.4418,0,863.3732,0,-1.833,3.077,230,21.85,21.24,30.5901,0.134,34.95,44.67,29.28,31.94
"2018-07-27 11:50:00",351204,0.052,232.8,22,68.83,204.4148,0,863.3711,0,11.75,2.945,270,21.86,21.24,29.09352,0.14,34.95,44.61,29.28,31.93
"2018-07-27 12:00:00",351205,0.221,207.9,22.16,69.65,253.8593,0,863.3626,0,14.74,2.918,301,21.88,21.23,36.47957,0.14,34.95,44.61,29.28,31.93
"2018-07-27 12:10:00",351206,0.158,80.6,22.19,69.87,289.7325,0,863.3605,0,-25.32,3.301,199,21.88,21.22,43.56431,0.148,34.95,44.61,29.28,31.93
"2018-07-27 12:20:00",351207,0.18,35.53,23.1,68.01,816.5521,0,863.3542,0,-21.6,3.257,226,21.91,21.23,137.5906,0.163,34.9,44.61,29.27,31.93
"2018-07-27 12:30:00",351208,0.621,27.04,24.28,60.2,1068.517,0,862.9877,0,-27.78,3.312,238,21.97,21.18,176.536,0.161,34.9,44.61,29.27,31.93
"2018-07-27 12:40:00",351209,0.454,261.2,24.54,58.87,876.4099,0,862.7834,0,-23.26,3.269,206,22.02,21.16,139.7791,0.152,34.85,44.56,29.26,31.91
"2018-07-27 12:50:00",351210,0.385,63,23.91,60.36,459.044,0,862.6022,0,13.48,2.922,316,22.02,21.15,66.78086,0.128,34.85,44.56,29.26,31.91
"2018-07-27 13:00:00",351211,0.187,111.7,23.31,64.26,262.5133,0,862.6044,0,-29.93,3.339,198,22.01,21.14,35.55371,0.131,34.85,44.61,29.26,31.93
"2018-07-27 13:10:00",351212,0.214,306.4,23.79,60.24,763.7977,0,862.5453,0,7.443,2.976,264,22.05,21.15,123.2135,0.155,34.81,44.56,29.24,31.91
"2018-07-27 13:20:00",351213,0.385,358.2,23.9,60.25,456.0352,0,862.3664,0,12.93,2.926,271,22.04,21.13,68.13602,0.141,34.81,44.56,29.24,31.91
"2018-07-27 13:30:00",351214,0.318,339.3,24.54,57.15,946.9869,0,862.3538,0,-32.54,3.354,200,22.12,21.12,156.853,0.161,34.81,44.56,29.24,31.91
"2018-07-27 13:40:00",351215,0.495,249.9,25.21,54.62,809.6469,0,862.261,0,-32.51,3.353,238,22.15,21.15,131.4593,0.156,34.76,44.51,29.23,31.9
"2018-07-27 13:50:00",351216,0.418,257.9,24.86,56.71,586.1,0,862.3475,0,-30.85,3.339,330,22.2,21.12,92.16551,0.14,34.71,44.51,29.22,31.9
"2018-07-27 14:00:00",351217,0.415,265.8,25.52,54.47,903.1249,0,862.1536,0,7.275,2.97,339,22.23,21.14,147.0987,0.159,34.71,44.51,29.22,31.9
"2018-07-27 14:10:00",351218,0.418,210.4,25.55,53.58,734.7986,0,862.0841,0,-29.27,3.321,260,22.26,21.15,114.9217,0.152,34.71,44.46,29.22,31.89
"2018-07-27 14:20:00",351219,0.522,113,25.54,55.34,467.0674,0,861.8862,0,-30.32,3.334,192,22.31,21.15,66.50272,0.119,34.71,44.46,29.22,31.89
"2018-07-27 14:30:00",351220,0.353,21.25,24.17,59.15,117.4959,0,861.9178,0,8.97,2.964,240,22.41,21.08,11.79685,0.099,34.62,44.41,29.19,31.87
"2018-07-27 14:40:00",351221,0.546,334.9,23.89,58.92,513.7357,0,861.8461,0,5.297,2.997,419,22.41,21.14,70.13309,0.136,34.67,44.41,29.2,31.87
"2018-07-27 14:50:00",351222,0.468,248.5,24.53,56.81,721.384,0,861.8419,0,4.124,3.006,285,22.47,21.12,85.89845,0.117,34.62,44.41,29.19,31.87
"2018-07-27 15:00:00",351223,0.28,215.6,24.65,56.99,331.152,0,861.8187,0,12.7,2.926,317,22.54,21.16,38.60142,0.117,34.62,44.41,29.19,31.87
"2018-07-27 15:10:00",351224,0.263,91,23.79,63.37,104.0522,0,861.7008,0,10.91,2.947,208,22.58,21.13,10.92207,0.104,34.57,44.41,29.17,31.87
"2018-07-27 15:20:00",351225,0.458,68.63,23.31,65.39,139.221,0,861.5912,0,10.16,2.955,205,22.63,21.17,19.61234,0.14,34.62,44.41,29.19,31.87
"2018-07-27 15:30:00",351226,0.155,141.6,23.38,66.38,241.0879,0,861.4122,0,13.75,2.918,262,22.68,21.19,38.89528,0.16,34.62,44.35,29.19,31.86
"2018-07-27 15:40:00",351227,0.442,186.9,24.03,63.74,240.1975,0,861.4649,0,3.61,3.012,238,22.71,21.17,42.7144,0.177,34.57,44.35,29.17,31.86
"2018-07-27 15:50:00",351228,0.385,185,24.22,63.21,184.2968,0,861.4986,0,-27.56,3.312,202,22.73,21.17,32.17111,0.174,34.57,44.35,29.17,31.86
"2018-07-27 16:00:00",351229,0.334,292,24.07,63.59,160.8001,0,861.5428,0,4.378,3.007,263,22.74,21.21,27.10865,0.168,34.57,44.3,29.17,31.85
"2018-07-27 16:10:00",351230,0.346,296.6,24.02,63.14,148.7337,0,861.4186,0,1.08,3.039,232,22.75,21.23,23.70609,0.158,34.52,44.3,29.16,31.85
"2018-07-27 16:20:00",351231,0.463,106.7,24.06,65.76,173.3185,0,861.4081,0,12.62,2.929,337,22.82,21.25,30.32439,0.176,34.52,44.25,29.16,31.83
"2018-07-27 16:30:00",351232,0.407,244.3,23.99,66.03,184.1334,0,861.4965,0,10.43,2.948,245,22.89,21.27,31.14325,0.169,34.52,44.25,29.16,31.83
"2018-07-27 16:40:00",351233,0.274,199.8,23.97,66.45,204.8765,0,861.5323,0,10.73,2.946,285,22.89,21.28,32.77235,0.16,34.48,44.25,29.15,31.83
"2018-07-27 16:50:00",351234,0.349,126.7,23.95,67.92,158.3158,0,861.5828,0,10.18,2.953,250,22.89,21.31,24.42344,0.153,34.48,44.25,29.15,31.83
"2018-07-27 17:00:00",351235,0.251,218.2,23.29,69.54,73.94865,0,861.5912,0,10.33,2.955,255,22.91,21.3,8.925836,0.119,34.48,44.2,29.15,31.82
"2018-07-27 17:10:00",351236,0.235,227.4,22.73,70.84,58.11122,0,861.6397,0,10.14,2.959,205,22.94,21.31,6.4092,0.11,34.52,44.25,29.16,31.83
"2018-07-27 17:20:00",351237,0.13,224,22.51,70.75,84.96364,0,861.8398,0,9.93,2.961,203,22.94,21.3,12.24989,0.142,34.52,44.25,29.16,31.83
"2018-07-27 17:30:00",351238,0.173,342.7,22.72,72.98,146.263,0,861.8546,0,8.67,2.971,208,22.98,21.36,23.63941,0.161,34.48,44.2,29.15,31.82
"2018-07-27 17:40:00",351239,0.109,69.55,22.69,73.17,91.18706,0,862.063,0,12.33,2.938,237,22.98,21.37,12.71618,0.138,34.48,44.25,29.15,31.83
"2018-07-27 17:50:00",351240,0.009,316.2,22.4,75.6,74.1823,0,862.0988,0,14.02,2.923,266,23.01,21.38,9.824334,0.132,34.48,44.25,29.15,31.83
"2018-07-27 18:00:00",351241,0.034,193.4,22.27,76.51,88.41837,0,862.0988,0,12.52,2.938,242,23.03,21.38,12.92503,0.145,34.52,44.25,29.16,31.83
"2018-07-27 18:10:00",351242,0.068,72.08,22.14,77.73,92.53168,0,862.1936,0,13,2.934,262,23.04,21.38,14.05855,0.152,34.52,44.15,29.16,31.81
"2018-07-27 18:20:00",351243,0.123,137.7,21.93,79.69,61.08821,0,862.3284,0,11,2.955,208,23.04,21.39,8.388388,0.137,34.62,44.15,29.19,31.81
"2018-07-27 18:30:00",351244,0.073,138.8,21.55,81.4,37.29174,0,862.3516,0,10.93,2.957,218,22.99,21.42,4.768404,0.128,34.52,44.2,29.16,31.82
"2018-07-27 18:40:00",351245,0.028,80.9,21.3,82.6,25.22716,0,862.3516,0,12.37,2.944,311,22.97,21.42,3.608577,0.143,34.52,44.2,29.16,31.82
"2018-07-27 18:50:00",351246,0.011,79.49,20.98,84.8,12.22236,0,862.3516,0,10.95,2.96,234,23,21.45,1.394905,0.112,34.52,44.2,29.16,31.82
"2018-07-27 19:00:00",351247,0.015,80.8,20.59,85.6,4.434629,0,862.3516,0,15.94,2.913,373,23.03,21.47,0.2539724,0.06,34.52,44.2,29.16,31.82
"2018-07-27 19:10:00",351248,0.004,65.7,20.38,87.2,1.065414,0,862.3516,0,17.21,2.902,432,22.99,21.49,0.08339405,0.048,34.57,44.2,29.17,31.82
"2018-07-27 19:20:00",351249,0.081,141.1,20.29,89.4,0.1297361,0,862.3558,0,19.33,2.882,381,22.98,21.53,0,0,34.52,44.2,29.16,31.82
"2018-07-27 19:30:00",351250,0.052,141,20.12,92.3,0,0,862.358,0,12.02,2.953,241,22.99,21.53,0,0,34.57,44.2,29.17,31.82
"2018-07-27 19:40:00",351251,0.012,176.2,19.97,93.5,0,0,862.5749,0,11.09,2.963,226,22.93,21.54,0,0,34.52,44.2,29.16,31.82
"2018-07-27 19:50:00",351252,0,0,19.88,94.8,0,0,862.6002,0,11.26,2.962,236,22.9,21.54,0,0,34.57,44.2,29.17,31.82
"2018-07-27 20:00:00",351253,0,0,19.79,97.2,0,0,862.6149,0,11.03,2.964,252,22.92,21.54,0.2160714,0,34.52,44.2,29.16,31.82
"2018-07-27 20:10:00",351254,0,0,19.83,98.4,0,0,862.8382,0,11.32,2.961,258,22.93,21.54,0.2274461,0,34.57,44.2,29.17,31.82
"2018-07-27 20:20:00",351255,0,0,19.84,99,0,0,862.8572,0,12.15,2.953,273,22.86,21.54,0.2274461,0,34.57,44.2,29.17,31.82
"2018-07-27 20:30:00",351256,0.021,1.094,19.8,99.9,0,0,862.9498,0,12.1,2.953,282,22.84,21.55,0.2274473,0,34.57,44.2,29.17,31.82
"2018-07-27 20:40:00",351257,0.036,323.6,19.8,99.3,0,0,863.1035,0,12.96,2.946,302,22.82,21.55,0.0947703,0,34.57,44.2,29.17,31.82
"2018-07-27 20:50:00",351258,0.005,352.3,19.72,100,0,0,863.0256,0,13.66,2.939,350,22.8,21.58,0.2274498,0,34.57,44.2,29.17,31.82
"2018-07-27 21:00:00",351259,0.066,32.13,19.66,99.9,0,0,863.0129,0,13.03,2.946,296,22.71,21.64,0.07960752,0,34.57,44.2,29.17,31.82
"2018-07-27 21:10:00",351260,0.033,38.66,19.6,100,0,0,862.9582,0,12.57,2.95,378,22.73,21.67,0.2198685,0,34.57,44.2,29.17,31.82
"2018-07-27 21:20:00",351261,0.025,313.3,19.61,99.7,0,0,862.8655,0,-28.9,3.351,197,22.76,21.65,0.1516335,0,34.62,44.2,29.19,31.82
"2018-07-27 21:30:00",351262,0.057,349.9,19.46,100,0,0,863.0088,0,14.17,2.937,386,22.73,21.65,0.03790836,0,34.62,44.2,29.19,31.82
"2018-07-27 21:40:00",351263,0.129,15.3,19.24,100,0,0,863.0488,0,-26.75,3.331,191,22.65,21.64,0.03411753,0,34.57,44.2,29.17,31.82
"2018-07-27 21:50:00",351264,0.119,6.164,19.2,100,0,0,862.8698,0,10.29,2.974,272,22.64,21.64,0.01137251,0,34.62,44.2,29.19,31.82
"2018-07-27 22:00:00",351265,0.063,32.02,19.15,100,0,0,862.8572,0,-31.27,3.377,208,22.68,21.64,0.003790837,0,34.62,44.2,29.19,31.82
"2018-07-27 22:10:00",351266,0,0,19.06,100,0,0,862.9708,0,-30.63,3.371,213,22.65,21.64,0.003790837,0,34.67,44.2,29.2,31.82
"2018-07-27 22:20:00",351267,0,0,19.05,100,0,0,862.8572,0,-30.76,3.372,208,22.58,21.64,0.1781693,0,34.62,44.2,29.19,31.82
"2018-07-27 22:30:00",351268,0.086,77.95,19,100,0,0,862.8129,0,-31.66,3.382,208,22.59,21.64,0.2047052,0,34.62,44.2,29.19,31.82
"2018-07-27 22:40:00",351269,0.246,65.37,18.85,100,0,0,862.7645,0,-27.32,3.34,198,22.59,21.64,0.1061434,0,34.62,44.2,29.19,31.82
"2018-07-27 22:50:00",351270,0.151,54.11,18.72,100,0,0,862.638,0,-27.55,3.343,206,22.53,21.64,0.1250976,0,34.62,44.2,29.19,31.82
"2018-07-27 23:00:00",351271,0.034,26.36,18.74,100,0,0,862.5959,0,1.677,3.06,350,22.47,21.64,0.2122868,0,34.67,44.2,29.2,31.82
"2018-07-27 23:10:00",351272,0.101,308.6,18.67,100,0,0,862.4422,0,3.448,3.044,428,22.47,21.64,0.1440518,0,34.62,44.2,29.19,31.82
"2018-07-27 23:20:00",351273,0.189,317,18.47,100,0,0,862.358,0,-2.037,3.098,235,22.49,21.64,0,0,34.67,44.2,29.2,31.82
"2018-07-27 23:30:00",351274,0.075,316.1,18.43,100,0,0,862.3516,0,-1.075,3.088,297,22.46,21.64,0.1592151,0,34.67,44.2,29.2,31.82
"2018-07-27 23:40:00",351275,0.221,300.6,18.42,100,0,0,862.3516,0,-38.04,3.446,216,22.38,21.64,0.04549004,0,34.67,44.2,29.2,31.82
"2018-07-27 23:50:00",351276,0.085,10.59,18.45,100,0,0,862.3516,0,-30.08,3.369,196,22.41,21.64,0.2198685,0,34.67,44.2,29.2,31.82
